Location: Ballingbuur
(53.0000°N, 5.7667°E)
Time: 05:23:26
(UTC+00:00)

Lacrosse 5 - Pass Details

Date: 29 November 2020
Orbit: 713 x 726 km, 57.0° (Epoch: 22 January)

Event Time Altitude Azimuth Distance (km) Brightness Sun altitude
Exits shadow 04:32:06 30° 191° (S) 1,274 3.0 -25.0°
Maximum altitude 04:34:06 45° 139° (SE) 972 2.8 -24.7°
Drops below altitude 10° 04:38:54 10° 68° (ENE) 2,198 5.2 -23.9°
Sets 04:41:21 0° 62° (ENE) 3,122 6.1 -23.6°
